Regional Weather Roundup
Issued by NWS

Home | Current Version | Previous Version | Text Only | Print | Product List | Glossary Off
Versions: 1 2 3 4 5 6 7 8 9 10 11 12 13 14 15 16 17 18 19 20 21 22 23 24 25 26 27 28 29 30 31 32 33 34 35 36 37 38 39 40 41 42 43 44 45 46 47 48 49 50

000
ASUS43 KTOP 270008
RWRKS

WEATHER ROUNDUP FOR KANSAS
NATIONAL WEATHER SERVICE GOODLAND KS
600 PM CST THU FEB 26 2015

NOTE:  "FAIR" INDICATES FEW OR NO CLOUDS BELOW 12,000 FEET WITH NO
SIGNIFICANT WEATHER AND/OR OBSTRUCTIONS TO VISIBILITY.

KSZ001>006-013>018-027>032-041>047-270100-
NORTHWEST KANSAS

CITY           SKY/WX    TMP DP  RH WIND       PRES   REMARKS
GOODLAND       CLOUDY    18   6  59 NE6       30.29S
6HR MIN TEMP:  16; 6HR MAX TEMP:  21; 6HR PCP: TRACE;

HAYS           CLEAR     19  -8  30 NE10      30.41S WCI   8
HILL CITY      CLEAR     21  -8  27 NE9       30.40S
6HR MIN TEMP:  19; 6HR MAX TEMP:  25;

RUSSELL        CLEAR     20  -7  30 N12       30.42R WCI   8
6HR MIN TEMP:  18; 6HR MAX TEMP:  23;

$$

KSZ061>065-074>080-084>089-270100-
SOUTHWEST KANSAS

CITY           SKY/WX    TMP DP  RH WIND       PRES   REMARKS
DODGE CITY     CLOUDY    21  -1  38 NE12      30.36R WCI   9
6HR MIN TEMP:  20; 6HR MAX TEMP:  25;

ELKHART          N/A     19  11  71 NE8         N/A
GARDEN CITY    CLOUDY    20   4  50 NE9       30.33S
6HR MIN TEMP:  18; 6HR MAX TEMP:  22;

GREAT BEND     CLEAR     19  -6  32 N12       30.43R WCI   7
LIBERAL        MOCLDY    21   7  53 NE10      30.34S WCI  10
PRATT          CLOUDY    21  -4  33 NE13      30.41S WCI   9
$$

KSZ066>073-081>083-090>101-270100-
SOUTHEAST KANSAS

CITY           SKY/WX    TMP DP  RH WIND       PRES   REMARKS
CHANUTE        CLEAR     22   2  42 N12       30.45R WCI  10
6HR MIN TEMP:  22; 6HR MAX TEMP:  27;

COFFEYVILLE    CLEAR     24   1  36 N15       30.45R WCI  11
6HR MIN TEMP:  24; 6HR MAX TEMP:  29;

HUTCHINSON     CLEAR     21  -5  31 N8        30.45R
6HR MIN TEMP:  20; 6HR MAX TEMP:  25;

MEDICINE LODGE   N/A     22  -4  32 NE14      30.42R WCI   9
NEWTON         CLEAR     19  -6  32 N15       30.45R WCI   5
PARSONS        CLEAR     24   1  36 N14       30.44S WCI  12
6HR MIN TEMP:  24; 6HR MAX TEMP:  30;

WICHITA INTL   PTCLDY    22  -5  30 NE14      30.44R WCI   9
6HR MIN TEMP:  21; 6HR MAX TEMP:  27;

WICHITA JABRA  CLEAR     19  -3  38 N14       30.44R WCI   6
6HR MIN TEMP:  19; 6HR MAX TEMP:  25;

WICHITA MCCONL CLEAR     20  -3  35 N16       30.44R WCI   6
WINFIELD       PTCLDY    23  -2  33 N14       30.45R WCI  11
6HR MIN TEMP:  23; 6HR MAX TEMP:  28;

$$

KSZ007>012-019>026-033>040-048>060-102>105-270100-
NORTHEAST KANSAS

CITY           SKY/WX    TMP DP  RH WIND       PRES   REMARKS
CONCORDIA      CLEAR     17  -2  43 N14       30.47R WCI   3
6HR MIN TEMP:  15; 6HR MAX TEMP:  21;

EMPORIA        CLEAR     19  -1  41 N12       30.45R WCI   7
6HR MIN TEMP:  19; 6HR MAX TEMP:  23;

LAWRENCE       CLEAR     17  -1  45 N16       30.49R WCI   2
6HR MIN TEMP:  17; 6HR MAX TEMP:  23;

MANHATTAN      CLEAR     18  -1  43 N8        30.49R
6HR MIN TEMP:  16; 6HR MAX TEMP:  21;

MARYSVILLE     CLEAR     14   1  57 N10       30.49R WCI   1
OLATHE IND     CLEAR     16   0  49 N17       30.46R WCI   0
6HR MIN TEMP:  16; 6HR MAX TEMP:  21;

OLATHE EXE     CLEAR     18  -1  43 N13       30.44R WCI   5
6HR MIN TEMP:  18; 6HR MAX TEMP:  22;

SALINA         CLEAR     20  -5  33 N16       30.48R WCI   6
6HR MIN TEMP:  19; 6HR MAX TEMP:  24;

TOPEKA BILLARD CLEAR     18   0  45 N9        30.50R
6HR MIN TEMP:  18; 6HR MAX TEMP:  22;

TOPEKA FORBES  CLEAR     18  -1  43 N12       30.46R WCI   5
6HR MIN TEMP:  18; 6HR MAX TEMP:  23;

$$



USA.gov is the U.S. government's official web portal to all federal, state and local government web resources and services.